Location: ???????
(48.3220°N, 34.0713°E)
Time: 12:49:47
(UTC+00:00)

Daily predictions for brighter satellites

Satellite Brightness Start Highest point End
(mag) Time Altitude Azimuth Time Altitude Azimuth Time Altitude Azimuth
Cosmos 2237 Rocket 2.5 14:18:31 10° SW 14:24:08 73° WNW 14:29:48 10° NNE
SJ-7 4.3 14:21:29 10° SSE 14:25:26 71° ENE 14:29:25 10° N
Meteor 1-4 Rocket 4.3 14:24:09 10° ESE 14:26:06 14° E 14:28:03 10° NE
Cosmos 1356 3.4 14:23:10 10° N 14:26:36 64° ENE 14:29:59 10° SSE
CZ-4B R/B 3.4 14:23:04 10° SE 14:28:06 46° ENE 14:33:09 10° N
Cosmos 1939 Rocket 4.4 14:26:27 10° E 14:28:39 15° ENE 14:30:52 10° NNE
Cosmos 1666 Rocket 3.9 14:24:28 10° N 14:28:45 45° ENE 14:33:01 10° SSE
Cosmos 44 3.6 14:23:30 10° NW 14:28:49 90° NE 14:34:15 10° SE
ADEOS Rocket 3.7 14:22:21 10° NNE 14:30:09 75° ESE 14:37:51 10° S
MOS 1-B 4.4 14:26:14 10° SSE 14:32:01 77° ENE 14:37:51 10° NNW
Cosmos 389 Rocket 2.4 14:28:59 10° S 14:32:22 64° E 14:35:46 10° NNE
Cosmos 2369 Rocket 2.8 14:27:35 10° NNW 14:32:49 35° NE 14:37:57 10° ESE
PSLV R/B 3.9 14:29:48 10° SSE 14:33:54 86° ENE 14:37:59 10° NNW
CZ-4B R/B 4.5 14:30:29 10° S 14:34:32 43° W 14:38:48 10° NNW
Cosmos 1943 Rocket 2.3 14:29:24 10° NNW 14:34:51 52° NE 14:40:17 10° SE
H-2A R/B 2.4 14:31:57 10° SSE 14:36:09 70° ENE 14:40:12 10° N
NOAA 12 4.3 14:33:23 10° SE 14:38:33 53° ENE 14:43:43 10° N
Cosmos 2221 4.3 14:38:57 10° SW 14:42:49 31° WNW 14:46:41 10° N
Cosmos 1980 4.5 14:38:38 10° SW 14:44:10 51° NW 14:49:43 10° NNE
H-2A R/B 2.3 14:40:05 10° NNE 14:44:13 50° E 14:48:24 10° S
NOAA 6 4.1 14:40:38 10° SSE 14:45:48 86° WSW 14:50:58 10° NNW
Okean O Rocket 1.7 14:44:36 10° SSE 14:48:51 55° ENE 14:53:09 10° N
CRYOSAT 2 4.3 14:44:38 10° N 14:49:32 71° E 14:54:25 10° S
Okean-O 4.2 14:48:02 10° E 14:50:40 16° ENE 14:53:19 10° NNE
Cosmos 1782 3.8 14:48:12 10° SSE 14:51:34 27° E 14:54:58 10° NNE
Cosmos 2218 Rocket 4.0 14:45:40 10° N 14:51:43 56° ENE 14:57:45 10° SSE
Cosmos 2366 rocket 4.1 14:46:43 10° N 14:52:47 55° ENE 14:58:47 10° SSE
Cosmos 1633 Rocket 3.0 14:48:43 10° N 14:53:05 65° ENE 14:57:25 10° SSE
H-2A R/B 4.0 14:52:02 10° S 14:55:44 45° W 14:59:31 10° NNW
Meteor 1-25 Rocket 4.2 14:50:25 10° N 14:56:04 72° ENE 15:01:46 10° SSE
Cosmos 1933 3.3 14:52:54 10° S 14:56:55 64° E 15:00:58 10° NNE
ISS -3.2 14:54:28 10° WNW 14:57:44 45° N 15:00:00 17° ENE
Cosmos 1867 3.9 14:53:14 10° SW 14:58:40 67° NW 15:04:08 10° NE
Envisat 3.6 14:57:22 10° S 15:02:23 62° WSW 15:07:27 10° NNW
ERS-2 3.2 15:01:35 15° NE 15:03:43 25° E 15:06:47 10° SSE
Cosmos 773 Rocket 4.0 15:03:41 10° SSW 15:08:55 70° ESE 15:14:12 10° NNE
Lacrosse 5 rocket 1.3 15:08:43 10° WSW 15:12:20 61° NNW 15:14:37 20° NE
Feng Yun 1-1 Rocket 4.4 15:08:47 10° SE 15:14:19 53° ENE 15:19:44 10° N
FengYun 1-2 T 4.1 15:09:01 10° SSE 15:14:31 75° ENE 15:20:02 10° NNW
USA 215 4.3 15:11:59 16° E 15:15:48 27° SE 15:21:10 10° S
SL-16 R/B 2.4 15:11:33 10° SSW 15:17:12 76° WNW 15:22:54 10° NNE
YAOGAN 6 4.0 15:13:50 10° S 15:17:17 42° W 15:20:44 10° NNW
AQUARIUS 4.3 15:14:28 10° S 15:18:57 77° WSW 15:23:28 10° NNW
Cosmos 1606 4.2 15:15:53 10° SW 15:19:33 39° WNW 15:23:13 10° N
Landsat 5 4.4 15:18:01 10° N 15:22:21 52° WNW 15:26:44 10° SW
CZ-4B R/B 1.3 15:23:18 26° NE 15:24:45 50° E 15:27:49 10° S
SMAP 3.7 15:22:47 10° S 15:27:21 58° W 15:31:58 10° NNW
Cosmos 1656 Rocket 3.8 15:23:25 10° NNW 15:28:55 49° NE 15:34:18 10° SE
Cosmos 1500 3.5 15:27:14 10° N 15:30:53 41° ENE 15:34:32 10° SSE
YAOGAN 1 3.3 15:32:08 29° ENE 15:32:22 29° ENE 15:36:07 10° N
SL-24 DEB 4.4 15:28:32 10° NNE 15:33:09 48° E 15:37:40 10° SSE
MOS 1 Rocket 4.4 15:34:07 26° ENE 15:35:32 29° E 15:40:10 10° SSE
Cosmos 1470 Rocket 3.6 15:31:11 10° NNW 15:35:32 81° W 15:39:50 10° S
Cosmos 1151 Rocket 3.4 15:31:49 10° SSW 15:36:04 63° WNW 15:40:18 10° N
Cosmos 2263 4.1 15:31:36 10° NNW 15:37:14 70° ENE 15:42:49 10° SE
Cosmos 158 Rocket 4.5 15:36:01 10° SSE 15:40:26 33° ESE 15:41:03 32° E
CZ-2C R/B 3.1 15:35:51 10° SE 15:40:31 43° ENE 15:45:04 10° N
USA 281 3.3 15:35:29 10° SE 15:41:46 51° NE 15:48:05 10° NNW
Cosmos 923 Rocket 4.5 15:38:29 10° S 15:43:14 37° ESE 15:44:26 33° ENE
Cosmos 1515 Rocket 3.4 15:39:21 10° S 15:43:43 82° E 15:47:58 11° NNE
Nadezhda 3 Rocket 4.1 15:39:25 10° SSE 15:45:32 51° E 15:51:40 10° NNE
Cosmos 1238 Rocket 3.3 15:42:08 10° N 15:45:56 43° ENE 15:50:30 10° SSE
SWAS 4.5 15:42:24 10° SSW 15:46:34 57° ESE 15:47:41 42° ENE
COSMO-SKYMED 1 2.5 15:45:53 25° NNE 15:48:20 62° E 15:52:38 10° S
USA 267 3.4 15:46:49 28° E 15:50:14 56° NNE 15:56:37 10° NW
Meteor 2-6 Rocket 4.2 15:45:39 10° S 15:51:04 56° E 15:54:59 18° NNE
Cosmos 1821 Rocket 3.9 15:46:31 10° N 15:52:46 68° E 15:59:02 10° SSE
TELKOM 3 4.4 15:50:35 10° WNW 15:52:24 36° WNW 15:52:24 36° WNW
NOSS 3-3 (A) 4.4 15:46:21 10° NW 15:53:42 69° NE 16:00:24 17° SE
NOSS 3-3 (C) 4.5 15:46:25 10° NW 15:53:47 68° NE 16:00:24 17° SE
SAR-Lupe-4 3.5 15:54:54 61° ESE 15:54:54 61° ESE 15:58:20 10° S
H-2A R/B 2.3 15:54:39 36° E 15:55:49 42° ENE 16:00:37 10° N
Cosmos 2228 Rocket 3.1 15:51:34 10° S 15:55:58 54° E 15:56:56 45° NE
Helios 1A Rocket 3.0 15:57:11 51° NE 15:57:11 51° NE 16:00:42 10° N
X-37B 1.5 15:54:21 10° WSW 15:57:12 40° S 15:57:12 40° S
Meteor 1-11 Rocket 3.9 15:52:23 10° N 15:58:00 49° ENE 16:03:42 10° SSE
Meteor 1-4 Rocket 3.7 15:57:20 10° SSW 16:00:46 42° WNW 16:03:14 17° N
Cosmos 1812 3.0 15:58:26 10° S 16:01:27 49° SSE 16:01:27 49° SSE
CSL-04 Rocket 3.9 16:02:26 42° ENE 16:02:26 42° ENE 16:07:17 10° N
Cosmos 1939 Rocket 3.3 15:59:16 10° S 16:03:07 60° W 16:07:02 10° NNW
Cosmos 44 Rocket 3.3 15:59:04 10° NW 16:04:15 76° NE 16:06:21 37° SE
CZ-4 R/B 4.4 16:00:12 10° SSE 16:04:20 86° WSW 16:08:30 10° NNW
IRS-1C Rocket 4.1 15:59:04 10° SSE 16:04:21 81° WSW 16:09:41 10° NNW
CZ-4 R/B 1.3 16:05:26 66° NE 16:05:26 66° NE 16:09:13 10° N
PSLV R/B 3.9 16:05:56 58° SE 16:05:56 58° SE 16:09:32 10° S
Cosmos 1933 Rocket 4.2 16:01:10 10° NNW 16:05:35 59° W 16:09:57 10° S
Cosmos 2237 Rocket 4.4 16:05:27 10° W 16:09:14 18° NW 16:13:02 10° N
SL-24 R/B 3.6 16:09:35 81° N 16:09:46 88° WNW 16:13:26 10° SSW
Cosmos 1680 Rocket 3.7 16:05:01 10° S 16:09:56 48° ESE 16:09:56 48° ESE
SAR-Lupe-1 4.3 16:12:15 65° SSW 16:12:15 65° SSW 16:15:21 10° SSW
Cosmos 1603 3.6 16:07:06 10° SSW 16:12:45 86° ESE 16:15:01 38° NNE
CZ-3B R/B 3.5 16:10:45 10° SSW 16:11:29 16° SSW 16:11:29 16° SSW
Lacrosse 4 Rocket 3.7 16:10:15 10° S 16:10:37 12° SSE 16:10:37 12° SSE
Cosmos 1943 3.1 16:10:31 10° SSW 16:16:11 81° ESE 16:18:07 43° NE
Cosmos 2369 Rocket 3.2 16:11:34 10° NW 16:17:00 47° WSW 16:22:21 10° S
Cosmos 1943 Rocket 4.1 16:13:38 10° NW 16:18:19 29° WSW 16:23:01 10° SSW
Meteor 1-5 Rocket 4.4 16:12:58 10° NNW 16:18:54 77° W 16:24:38 10° S
H-2A R/B 4.5 16:16:49 10° NNW 16:19:52 20° WNW 16:22:58 10° WSW
CZ-2D R/B 3.9 16:16:50 10° S 16:20:34 54° W 16:24:22 10° NNW
CENTAUR R/B 2.9 16:15:23 10° S 16:20:31 42° SE 16:20:31 42° SE
Cosmos 1371 Rocket 4.0 16:18:37 10° NNW 16:23:15 60° NNE 16:23:15 60° NNE
ARGOS 3.8 16:27:01 40° NNE 16:27:01 40° NNE 16:30:41 10° N
Okean O Rocket 4.5 16:22:36 10° SW 16:25:34 18° W 16:28:32 10° NW
Okean-O 2.7 16:22:11 10° S 16:26:36 73° WSW 16:31:04 10° NNW
NOSS 3-2 (C) 3.8 16:23:21 10° S 16:27:40 41° SE 16:27:40 41° SE
Cosmos 2056 Rocket 3.8 16:24:49 10° NNW 16:29:05 53° NNE 16:29:05 53° NNE
Cosmos 2112 Rocket 4.4 16:25:24 10° S 16:29:29 50° SSE 16:29:29 50° SSE
DEBRIS 3.5 16:22:36 10° WNW 16:33:39 77° SSW 16:34:04 70° SSE
ISS -1.6 16:31:25 10° WNW 16:32:58 25° WNW 16:32:58 25° WNW
ERS-2 4.1 16:36:10 23° NW 16:37:14 27° WNW 16:40:22 10° SW
Meteor 1-27 Rocket 4.3 16:34:04 10° S 16:37:41 42° SSE 16:37:41 42° SSE
Cosmos 1869 Rocket 4.0 16:35:53 10° NNW 16:40:19 61° W 16:40:22 61° W
Meteor 1-10 Rocket 4.4 16:38:23 10° SSW 16:43:59 71° WNW 16:46:16 37° N
Cosmos 1624 Rocket 4.4 16:41:31 10° NNW 16:45:34 53° NNW 16:45:34 53° NNW
Cosmos 371 Rocket 4.1 16:45:55 10° NNW 16:49:18 44° NW 16:49:18 44° NW
Lacrosse 5 rocket 3.7 16:49:05 10° WNW 16:50:15 16° NW 16:50:15 16° NW
NOSS 3-2 (A) 3.3 16:48:13 10° SW 16:53:57 84° NW 16:54:01 84° NNW
USA 215 3.1 16:59:21 81° SE 16:59:26 82° SE 17:06:00 10° SW
SL-16 R/B 4.4 16:58:27 10° W 17:02:20 18° NW 17:05:04 14° N
YAOGAN 1 4.4 17:09:19 29° WNW 17:09:19 29° WNW 17:12:19 10° NNW
USA 238 DEB 3.7 17:06:42 10° SW 17:13:06 76° WNW 17:13:06 76° WNW
USA 238 3.7 17:06:47 10° SW 17:13:10 76° WNW 17:13:10 76° WNW
MOS 1 Rocket 4.5 17:13:25 46° NW 17:13:56 47° WNW 17:19:04 10° SW
USA 281 4.3 17:20:20 10° S 17:26:24 39° WSW 17:32:31 10° NW
USA 267 3.6 17:34:11 60° W 17:34:11 60° W 17:39:44 10° WNW
H-2A R/B 3.7 17:35:17 30° W 17:35:21 30° W 17:39:52 10° NNW
CENTAUR R/B 4.3 18:05:22 10° WSW 18:07:44 25° WSW 18:07:44 25° WSW
